Dewpoint
35 36 37 38 39 38 37 38 39 38 37 35 35 35 35 35 36 36 35 35 36 36 37 36 37 36 35 33 33 33 33 33 33 34 35 35 34 33 33 33 32 33 33 33 33 33 33 33 33 34 34 34 34 33 33 33 33 33 33 33 33 33 33 32 32 32 32 32 33
35 36 38 41 41 39 37 37 38 38 37 35 35 35 34 35 36 36 35 34 35 36 36 36 36 35 33 33 33 33 33 33 33 33 33 33 33 32 32 32 32 32 33 33 32 33 33 33 33 33 33 33 33 32 32 32 32 32 32 32 32 32 32 32 32 32 32 31 32
33 35 37 37 37 36 36 36 36 35 34 34 34 34 34 34 35 36 35 35 34 33 33 35 35 34 33 33 33 32 32 32 32 32 33 33 33 32 32 32 32 32 33 33 32 32 33 32 33 33 33 32 31 31 31 31 32 32 32 31 32 32 31 31 31 31 31 31 32
33 33 34 35 35 35 35 36 35 34 33 34 33 33 34 34 34 34 34 33 32 32 33 34 34 34 34 34 33 32 32 33 33 33 33 33 32 32 32 32 31 31 31 32 31 31 31 31 32 32 31 31 31 31 31 31 31 31 31 31 31 31 31 31 31 31 31 31 31
33 33 33 33 33 33 33 34 34 33 33 33 33 33 33 33 34 33 33 34 34 34 33 33 33 33 34 34 33 32 31 32 34 34 33 32 32 31 31 31 31 31 31 31 31 31 31 30 31 31 30 30 30 30 30 31 31 31 31 31 31 30 30 31 31 31 31 31 31
33 33 32 32 32 32 32 31 32 32 32 32 33 33 33 33 33 33 33 34 34 33 33 33 34 36 36 33 32 31 31 31 31 31 31 31 31 31 31 31 31 31 31 31 31 30 30 30 30 30 30 30 30 30 30 30 30 30 30 30 30 30 30 30 30 31 31 31 31
33 32 32 31 31 31 31 30 30 29 30 31 32 33 33 33 32 32 32 33 32 32 33 36 35 35 33 32 31 31 31 31 31 30 30 31 31 31 31 31 30 30 30 30 30 30 30 30 30 30 30 31 30 30 29 29 29 29 29 29 29 30 30 30 30 30 30 30 29
32 32 32 31 31 30 30 30 30 30 31 32 32 33 32 32 31 31 31 30 31 32 33 35 33 31 30 30 30 31 31 30 30 30 30 31 30 30 30 30 30 30 30 30 30 30 30 30 30 30 29 29 29 29 29 28 28 28 28 28 29 29 29 29 29 30 29 29 28
32 31 31 31 30 30 29 29 29 31 32 32 32 32 31 31 31 31 31 31 33 33 33 32 30 29 29 29 30 30 30 30 30 30 30 30 30 30 30 30 30 30 30 30 30 29 29 29 29 29 29 29 29 28 28 28 28 28 28 28 29 29 29 29 29 29 28 28 28
32 31 30 30 30 30 30 28 29 30 31 31 31 30 31 34 33 32 32 33 34 32 30 29 29 29 29 29 30 30 30 30 30 30 30 30 31 31 30 30 29 29 29 29 29 29 29 29 29 28 28 28 28 28 28 28 28 28 28 28 28 28 28 29 29 28 28 29 28
32 31 30 31 31 31 31 29 30 31 31 30 30 29 30 33 32 32 32 32 30 29 29 29 29 29 30 30 30 30 30 30 30 30 30 30 30 30 29 29 29 29 29 29 29 29 29 28 28 28 28 28 28 28 28 28 28 28 28 28 28 28 28 28 28 28 28 28 28
31 30 30 29 29 29 29 29 30 30 31 30 30 29 28 29 28 30 30 29 29 29 29 29 29 29 30 30 30 31 31 30 29 29 29 29 29 29 29 29 29 29 29 28 28 28 28 28 28 27 27 28 28 28 28 28 27 28 28 28 28 28 28 28 28 28 28 28 28
30 30 29 28 28 28 28 29 28 28 29 29 29 28 28 28 28 29 30 28 30 30 30 29 30 30 30 30 30 30 29 29 29 29 29 29 29 28 28 28 28 28 28 28 28 28 28 28 27 27 27 27 27 28 28 27 27 27 27 27 27 27 27 28 28 28 28 28 29
29 29 28 28 28 28 28 28 28 28 28 28 28 28 28 27 28 29 29 28 29 29 29 29 30 31 31 30 29 29 29 28 28 28 28 28 29 28 28 28 28 28 28 28 28 28 28 27 27 27 27 27 27 27 27 27 27 27 27 27 27 27 27 28 28 28 28 28 29
28 28 28 27 27 27 28 28 29 29 29 28 28 28 27 27 28 29 29 28 28 28 28 28 29 30 31 30 29 28 28 28 28 28 28 28 28 28 28 28 28 28 28 28 28 27 27 27 26 26 26 27 27 27 27 27 27 27 27 27 27 27 28 28 28 28 28 28 28
28 28 27 26 27 27 28 28 28 29 29 28 28 27 27 27 28 29 30 29 28 28 28 28 28 28 29 30 29 29 28 28 28 28 28 28 28 28 28 28 28 28 28 27 27 27 27 27 27 26 26 26 26 27 27 27 27 27 27 27 28 28 28 28 28 29 29 29 29
28 27 26 26 27 27 28 27 27 27 28 28 27 27 27 27 28 29 31 31 29 28 28 28 28 28 28 30 30 30 29 28 28 28 28 28 28 28 28 28 28 28 27 26 26 27 27 27 27 26 26 26 26 26 27 27 27 27 27 28 28 28 28 29 29 29 29 29 29
28 27 26 26 27 28 27 27 27 27 27 27 27 27 27 27 28 28 29 31 29 28 28 28 28 28 28 28 28 29 30 29 29 29 29 28 28 28 28 28 28 28 27 25 26 26 26 26 26 26 26 26 26 27 27 27 28 28 28 28 28 28 28 29 29 29 29 29 30
28 27 27 27 27 27 28 28 28 27 27 27 27 27 27 26 27 27 28 28 29 29 28 28 28 28 28 28 28 29 31 30 29 28 28 28 28 27 27 27 27 27 26 25 25 26 26 26 26 26 26 27 27 28 28 28 28 28 28 28 28 29 29 29 29 29 29 29 30
28 28 28 28 27 27 27 28 28 27 27 26 26 26 27 26 26 27 27 28 28 28 28 28 28 28 28 28 28 28 29 30 29 28 28 28 27 27 27 27 27 27 26 25 25 25 26 26 26 26 27 27 27 28 28 28 28 28 29 29 29 29 29 29 29 29 29 29 30
28 28 28 27 27 26 26 26 26 26 26 26 26 26 27 26 27 27 28 28 28 28 27 27 28 28 28 28 28 28 29 30 29 28 28 28 27 27 27 27 27 26 26 25 25 25 26 26 26 27 27 27 28 28 28 29 29 29 29 30 30 30 30 29 29 29 29 30 30
28 28 27 26 26 26 26 25 25 25 25 26 26 26 27 27 27 27 27 28 28 28 28 28 28 28 28 28 29 29 29 29 28 28 28 27 27 27 27 27 26 26 26 25 25 25 26 26 26 26 27 28 28 28 29 30 30 30 30 30 30 30 30 30 30 30 30 30 31
28 27 26 25 25 27 28 27 26 26 26 27 27 27 27 27 27 27 27 27 28 28 28 28 28 28 28 28 28 28 28 28 28 27 27 26 26 26 26 26 25 25 25 26 26 26 26 27 28 28 28 28 28 29 30 31 31 31 31 30 30 30 30 31 31 30 30 31 31
27 26 26 25 25 26 26 26 26 26 27 28 28 28 28 28 27 27 27 27 28 28 28 29 29 28 28 27 27 26 26 26 27 27 26 25 25 25 25 25 25 26 26 27 28 29 30 31 31 31 31 31 31 32 32 32 31 31 31 30 30 31 31 32 31 30 30 31 31
26 27 27 26 26 26 26 26 27 27 28 28 28 27 27 27 28 28 28 28 28 28 28 28 28 27 27 27 26 26 25 25 25 25 25 25 25 25 25 25 26 26 27 29 32 34 34 34 33 33 32 32 32 31 31 30 30 30 30 30 30 31 31 31 31 31 31 30 31
25 26 27 26 26 27 27 27 27 27 27 27 27 27 28 28 28 28 28 28 28 28 28 27 27 28 28 28 27 26 26 25 25 25 25 25 25 25 26 26 26 26 27 30 33 35 35 35 35 34 33 32 32 31 30 30 30 30 30 30 31 31 30 30 30 30 30 30 30
26 26 26 26 26 27 27 27 27 27 27 27 28 28 28 28 28 28 27 28 28 27 27 27 26 28 30 28 27 26 26 25 25 25 25 25 25 25 26 26 27 28 29 33 34 35 35 35 35 34 34 34 33 31 30 30 31 32 32 31 31 31 30 30 29 29 29 28 30
27 27 27 26 27 27 27 27 27 27 28 28 28 28 28 28 27 27 27 27 27 26 26 26 27 28 28 27 26 25 25 25 25 25 25 25 25 25 25 26 26 28 31 34 34 34 34 34 34 34 34 33 32 31 31 31 31 31 31 31 30 30 30 30 29 28 28 28 28
27 27 27 27 27 27 27 27 28 28 28 28 28 28 27 27 26 26 26 26 26 26 26 26 27 27 26 25 25 25 25 25 25 26 26 25 25 25 26 26 27 28 31 34 34 33 33 34 34 34 34 33 32 31 30 29 29 29 29 29 29 29 29 29 28 28 28 28 28
26 27 27 28 27 28 28 28 28 28 28 28 27 27 26 26 26 25 25 25 25 25 25 26 26 26 25 25 25 25 25 26 26 26 25 25 25 26 27 28 27 28 31 33 33 33 33 33 33 34 34 34 33 31 29 29 29 29 29 28 28 28 28 28 28 28 28 28 28
26 26 27 27 27 27 28 28 28 27 27 26 26 25 25 25 25 25 24 24 24 25 26 26 25 24 24 25 25 25 25 25 25 25 25 25 27 28 27 27 26 28 30 33 33 33 33 33 33 33 34 34 32 30 29 28 28 28 28 28 28 28 28 28 28 28 28 28 28
26 26 26 27 27 27 27 27 26 26 25 24 24 24 24 24 24 24 24 24 24 24 24 24 24 24 24 24 24 25 25 25 25 26 26 27 27 26 26 26 25 27 30 32 32 32 33 33 33 33 33 33 32 30 28 28 27 27 27 27 28 28 28 28 28 28 28 28 28
26 26 26 26 26 26 26 26 25 24 24 23 23 23 24 23 23 22 22 23 24 24 24 24 24 24 24 25 25 25 25 26 26 28 28 28 27 26 25 26 24 27 30 32 32 32 32 33 33 33 33 33 31 29 28 27 26 26 26 27 27 28 28 28 29 29 28 28 28
26 26 25 25 25 25 25 24 24 23 23 22 22 22 22 22 22 22 22 24 24 24 24 24 25 25 25 25 25 25 26 28 27 27 26 25 25 25 25 25 24 26 29 31 32 32 32 32 32 33 33 33 30 28 27 27 26 26 27 27 28 28 28 29 29 29 29 28 27
26 26 25 24 24 24 24 23 23 22 21 21 21 21 21 21 21 22 23 25 26 25 24 24 25 25 25 25 25 25 26 27 26 26 25 25 25 25 25 24 24 26 29 31 31 31 32 32 32 32 32 32 29 27 27 26 26 26 27 27 28 28 28 29 29 28 28 27 27
26 25 25 24 24 24 23 22 21 21 21 21 21 21 21 21 21 22 24 26 26 25 24 24 24 24 25 25 25 26 27 26 26 25 25 26 25 25 24 24 23 26 29 31 31 31 31 31 32 32 31 30 28 27 26 26 26 26 27 27 28 28 28 28 28 27 26 27 27
25 25 24 24 24 24 23 22 21 21 21 21 21 21 22 22 22 22 24 26 25 24 24 24 24 25 25 25 25 26 26 26 25 25 26 27 26 25 24 23 22 24 28 30 30 30 31 31 31 31 30 28 27 27 27 27 27 27 28 28 28 28 28 28 27 27 27 27 28
25 24 24 24 24 24 23 22 21 21 21 21 21 22 22 23 23 23 24 27 25 25 25 25 25 25 25 25 26 26 26 26 26 26 26 26 25 24 24 23 23 24 26 29 30 30 30 31 31 31 30 28 27 27 27 27 27 27 28 27 28 28 28 28 28 28 28 27 30
25 24 24 24 24 23 22 21 21 21 21 22 22 22 22 23 23 24 25 27 26 25 25 25 25 25 26 26 27 27 26 26 26 27 26 25 24 25 25 24 24 24 25 28 29 30 30 30 31 31 30 29 28 27 27 27 28 28 28 28 28 28 28 28 28 28 28 28 31
25 24 24 23 23 23 22 21 21 22 22 22 22 23 23 23 25 26 27 27 26 25 25 25 25 25 27 28 28 27 26 26 25 25 25 25 25 26 28 26 24 23 24 27 28 29 30 30 30 31 30 29 28 28 28 28 28 28 28 28 28 28 28 28 28 29 29 29 31
25 24 24 23 22 22 22 22 22 22 22 22 23 23 24 26 26 27 27 26 25 25 25 26 26 26 27 28 28 27 26 25 25 25 24 25 25 26 26 25 23 21 22 24 28 29 30 30 30 31 31 29 28 28 28 28 28 28 28 28 28 28 29 29 29 30 30 30 30